Year,Month,Day,Hour,Minute,Value (Times are PST for temperature in C)
2015,02,16,11,29,6.10
2015,02,16,11,30,6.20
2015,02,16,11,31,6.20
2015,02,16,11,32,6.20
2015,02,16,11,33,6.20
2015,02,16,11,34,6.20
2015,02,16,11,35,6.20
2015,02,16,11,36,6.20
2015,02,16,11,37,6.20
2015,02,16,11,38,6.20
2015,02,16,11,39,6.20
2015,02,16,11,40,6.20
2015,02,16,11,41,6.20
2015,02,16,11,42,6.30
2015,02,16,11,43,6.30
2015,02,16,11,44,6.30
2015,02,16,11,45,6.30
2015,02,16,11,46,6.30
2015,02,16,11,47,6.30
2015,02,16,11,48,6.30
2015,02,16,11,49,6.30
2015,02,16,11,50,6.30
2015,02,16,11,51,6.40
2015,02,16,11,52,6.40
2015,02,16,11,53,6.40
2015,02,16,11,54,6.50
2015,02,16,11,55,6.40
2015,02,16,11,56,6.40
2015,02,16,11,57,6.40
2015,02,16,11,58,6.40
2015,02,16,11,59,6.40
2015,02,16,12,00,6.60
2015,02,16,12,01,6.60
2015,02,16,12,02,6.60
2015,02,16,12,03,6.60
2015,02,16,12,04,6.80
2015,02,16,12,05,6.90
2015,02,16,12,06,6.90
2015,02,16,12,07,6.90
2015,02,16,12,08,6.90
2015,02,16,12,09,6.90
2015,02,16,12,10,6.90
2015,02,16,12,11,6.90
2015,02,16,12,12,6.90
2015,02,16,12,13,6.90
2015,02,16,12,14,6.90
2015,02,16,12,15,6.90
2015,02,16,16,29,9.70
2015,02,16,16,30,9.70
2015,02,16,16,31,9.70
2015,02,16,16,32,9.70
2015,02,16,16,33,9.70
2015,02,16,16,34,9.70
2015,02,16,16,35,9.70
2015,02,16,16,36,9.70
2015,02,16,16,37,9.60
2015,02,16,16,38,9.60
2015,02,16,16,39,9.60
2015,02,16,16,40,9.60
2015,02,16,16,41,9.60
2015,02,16,16,42,9.60
2015,02,16,16,43,9.60
2015,02,16,16,44,9.60
2015,02,16,16,45,9.50
2015,02,16,16,46,9.50
2015,02,16,16,47,9.50
2015,02,16,16,48,9.50
2015,02,16,16,49,9.50
2015,02,16,16,50,9.40
2015,02,16,16,51,9.40
2015,02,16,16,52,9.40
2015,02,16,16,53,9.50
2015,02,16,16,54,9.50
2015,02,16,16,55,9.50
2015,02,16,16,56,9.50
2015,02,16,16,57,9.40
2015,02,16,16,58,9.40
2015,02,16,16,59,9.40
2015,02,16,17,00,9.40
2015,02,16,17,01,9.30
2015,02,16,17,02,9.30
2015,02,16,17,03,9.30
2015,02,16,17,04,9.30
2015,02,16,17,05,9.30
2015,02,16,17,06,9.30
2015,02,16,17,07,9.30
2015,02,16,17,08,9.30
2015,02,16,17,09,9.30
2015,02,16,17,10,9.30
2015,02,16,17,11,9.30
